Baker, MT

12:44 AM MDT on May 27, 2017 (GMT -0600)
Baker Municipal

Weather History for KBHK - October, 2012

Change the Weather History Date:

Sunday, October 28, 2012

  Actual Average Record
Temperature  
Mean Temperature 32 °F -  
Max Temperature 39 °F 52 °F 68 °F (2007)
Min Temperature 24 °F 46 °F 12 °F (2010)
Degree Days  
Heating Degree Days 34    
Moisture  
Dew Point 26 °F    
Average Humidity 80    
Maximum Humidity 88    
Minimum Humidity 73    
Precipitation  
Precipitation 0.00 in - - ()
Sea Level Pressure  
Sea Level Pressure 30.05 in    
Wind  
Wind Speed 13 mph (SE)    
Max Wind Speed 22 mph    
Max Gust Speed 25 mph    
Visibility 10 miles    
Events      
Averages and records for this station are not official NWS values.
T = Trace of Precipitation, MM = Missing Value Source: NWS Daily Summary

Daily Weather History Graph

Daily Weather History Graph

Search for Another Location

Airport or City:

Trip Planner

Search our weather history database for the weather conditions in past years. The results will help you decide how hot, cold, wet, or windy it might be!

Date:

Astronomy

Oct. 28, 2012 Rise Set
Actual Time 7:33 AM MDT 5:47 PM MDT
Civil Twilight 7:02 AM MDT 6:18 PM MDT
Nautical Twilight 6:26 AM MDT 6:53 PM MDT
Astronomical Twilight 5:51 AM MDT 7:28 PM MDT
Moon 5:06 PM MDT (10/28) 6:27 AM MDT (10/28)
Length of Visible Light 11h 16m
Length of Day
10h 14m
Waxing Gibbous, 99% of the Moon is Illuminated
Oct 28
Waxing Gibbous
Oct 29
Full
Nov 6
Last Quarter
Nov 13
New
Nov 20
First Quarter

Hourly Weather History & Observations

Time (MDT) Temp. Windchill Dew Point Humidity Pressure Visibility Wind Dir Wind Speed Gust Speed Precip Events Conditions
12:02 AM 26.6 °F 16.2 °F 21.2 °F 80% 30.12 in 10.0 mi ESE 11.5 mph - N/A   Overcast
12:51 AM 26.1 °F 14.5 °F 21.9 °F 84% 30.19 in 10.0 mi ESE 13.8 mph - N/A   Overcast
1:51 AM 26.1 °F 16.2 °F 21.9 °F 84% 30.18 in 10.0 mi ESE 10.4 mph - N/A   Overcast
2:51 AM 26.1 °F 16.8 °F 21.9 °F 84% 30.17 in 10.0 mi ESE 9.2 mph - N/A   Overcast
3:51 AM 26.1 °F 15.0 °F 21.0 °F 81% 30.14 in 10.0 mi ESE 12.7 mph - N/A   Overcast
4:51 AM 26.1 °F 15.6 °F 21.9 °F 84% 30.14 in 10.0 mi ESE 11.5 mph - N/A   Overcast
5:51 AM 26.1 °F 13.6 °F 21.0 °F 81% 30.13 in 10.0 mi SE 16.1 mph - N/A   Overcast
6:51 AM 25.0 °F 12.2 °F 21.0 °F 85% 30.11 in 9.0 mi SE 16.1 mph - N/A   Overcast
7:28 AM 24.8 °F 11.9 °F 21.2 °F 86% 30.01 in 9.0 mi SE 16.1 mph - N/A   Overcast
7:51 AM 25.0 °F 12.2 °F 21.9 °F 88% 30.11 in 8.0 mi SE 16.1 mph - N/A   Overcast
8:51 AM 26.1 °F 14.0 °F 23.0 °F 88% 30.10 in 9.0 mi SE 15.0 mph - N/A   Overcast
9:21 AM 26.6 °F 15.2 °F 23.0 °F 86% 30.00 in 10.0 mi SE 13.8 mph - N/A   Overcast
10:39 AM 30.2 °F 18.5 °F 24.8 °F 80% 29.98 in 10.0 mi SE 17.3 mph - N/A   Overcast
10:51 AM 30.0 °F 16.9 °F 25.0 °F 82% 30.06 in 10.0 mi SE 21.9 mph - N/A   Overcast
11:51 AM 33.1 °F 21.9 °F 26.1 °F 75% 30.04 in 10.0 mi SE 18.4 mph - N/A   Overcast
12:17 PM 33.8 °F 22.5 °F 26.6 °F 75% 29.95 in 10.0 mi SE 19.6 mph 25.3 mph N/A   Overcast
12:51 PM 34.0 °F 23.8 °F 27.0 °F 75% 30.02 in 10.0 mi SE 16.1 mph - N/A   Overcast
1:51 PM 36.0 °F 26.7 °F 28.0 °F 73% 30.00 in 10.0 mi SE 15.0 mph 20.7 mph N/A   Overcast
2:51 PM 37.0 °F 28.9 °F 30.0 °F 76% 29.99 in 10.0 mi SE 12.7 mph - N/A   Overcast
3:51 PM 37.9 °F 29.2 °F 30.9 °F 76% 29.97 in 10.0 mi SE 15.0 mph - 0.00 in   Overcast
4:51 PM 39.0 °F 31.8 °F 32.0 °F 76% 29.97 in 10.0 mi SE 11.5 mph - N/A   Overcast
5:51 PM 37.9 °F 30.9 °F 32.0 °F 79% 29.98 in 10.0 mi ESE 10.4 mph - N/A   Overcast
6:51 PM 37.9 °F 29.2 °F 32.0 °F 79% 29.98 in 10.0 mi SE 15.0 mph - N/A   Overcast
7:51 PM 37.0 °F 29.8 °F 30.9 °F 79% 29.99 in 10.0 mi SE 10.4 mph - N/A   Overcast
8:51 PM 37.9 °F 30.5 °F 30.0 °F 73% 29.99 in 10.0 mi SE 11.5 mph - N/A   Overcast
9:51 PM 37.0 °F 30.4 °F 30.0 °F 76% 29.99 in 10.0 mi SE 9.2 mph - N/A   Overcast
11:51 PM 36.0 °F 30.3 °F 30.0 °F 79% 29.99 in 10.0 mi ESE 6.9 mph - N/A   Mostly Cloudy